Cloud_Cover
100 54 66 100 12 5 4 4 4 53 78 51 100 100 100 100 100 100 100 100 100 100 25 11 6 5 5 5 87 6 94 99 99 100 100 100 100 100 100 100 100 100 100 100 100 100 93 100 100 100 100 100 100 100
21 98 100 5 5 5 5 5 12 98 56 87 100 100 100 100 100 100 100 100 100 100 62 5 5 3 5 6 32 36 99 9 99 100 100 100 100 100 100 100 100 100 100 100 100 100 100 100 100 100 100 100 100 100
12 100 5 5 5 5 5 5 5 5 77 100 100 100 100 100 100 100 100 100 100 100 100 98 73 0 10 95 100 100 24 33 49 100 100 100 100 100 100 100 100 100 100 100 100 100 100 100 100 100 100 100 100 100
38 24 5 5 5 5 7 42 14 11 5 5 7 56 86 100 100 100 100 100 100 100 97 1 0 0 98 40 91 82 10 49 46 100 100 100 100 100 100 100 100 100 100 100 100 100 100 100 100 100 100 100 100 100
5 5 5 5 5 5 5 19 42 8 63 21 5 5 28 17 100 100 100 100 100 100 38 15 73 92 66 98 98 99 33 100 100 100 100 100 100 100 100 100 99 100 100 100 100 100 100 100 100 100 100 100 100 100
43 5 5 5 5 1 5 32 45 56 75 100 52 27 5 8 32 33 86 51 55 98 100 92 27 100 100 100 77 70 100 100 100 100 100 100 100 100 100 100 78 100 100 100 100 100 100 100 100 100 100 100 100 100
5 5 5 5 3 4 5 5 51 85 100 100 99 97 94 14 17 78 82 67 95 100 100 62 100 100 100 100 92 98 100 100 100 100 100 100 100 100 100 100 100 68 87 100 100 100 100 100 100 100 100 100 100 100
4 5 5 1 0 4 5 10 11 31 100 44 67 100 100 100 75 11 5 5 71 99 100 99 100 100 100 100 100 100 100 100 100 100 100 100 100 100 100 99 100 95 97 100 100 100 100 100 100 100 100 100 100 100
4 4 4 0 1 5 79 19 46 15 24 5 22 100 88 96 100 100 58 89 95 90 90 100 100 100 100 100 100 100 100 100 100 100 100 100 100 100 100 100 100 100 100 100 100 100 100 100 100 100 100 100 100 100
2 1 0 0 5 8 26 53 100 100 24 7 85 100 97 98 100 100 98 100 100 100 100 100 100 100 100 100 100 100 100 100 100 100 100 100 100 100 100 100 100 100 100 100 100 100 100 100 100 100 100 100 100 100
5 4 4 5 5 10 23 100 100 95 69 100 100 100 100 99 100 100 100 100 100 100 100 100 100 100 100 100 100 100 100 100 100 100 100 100 100 100 100 100 100 100 100 100 100 100 100 100 100 100 100 100 100 100
3 2 0 4 13 61 100 100 100 89 100 100 100 100 100 47 78 100 100 100 100 100 100 100 100 100 100 100 100 100 100 100 100 100 100 100 100 100 100 100 100 100 100 100 100 100 100 100 100 100 100 100 100 100
37 6 9 32 70 59 100 100 78 70 100 100 70 88 5 41 97 75 100 100 100 100 100 100 100 99 100 100 100 100 100 100 100 100 100 100 100 100 100 100 100 100 100 100 100 100 100 100 100 100 100 100 100 100
63 10 15 0 21 100 94 7 5 5 9 28 9 6 19 25 87 67 100 100 100 100 100 100 100 100 100 100 100 100 100 100 100 100 100 100 100 100 100 100 100 100 100 100 100 100 100 100 100 100 100 100 100 100
6 4 39 5 100 10 5 5 5 5 5 5 5 84 55 29 35 84 87 100 100 100 100 100 100 100 100 100 100 100 100 100 100 100 100 100 100 100 100 100 100 100 100 100 100 100 100 100 100 100 100 100 100 100
5 6 1 58 95 5 4 3 4 5 5 5 5 7 6 11 5 16 90 100 100 100 100 100 100 100 100 100 100 100 100 100 100 100 100 100 100 100 100 100 100 100 100 100 100 100 100 100 100 100 100 100 100 100
9 5 5 91 25 4 2 4 5 5 5 5 65 84 75 98 99 61 9 10 97 100 89 100 100 100 100 100 100 100 100 100 100 100 100 100 100 100 100 100 100 100 100 100 100 100 100 100 100 100 100 100 100 100
12 5 30 5 5 4 5 5 5 5 26 78 6 29 79 94 81 5 5 5 81 91 96 100 100 90 100 100 100 100 100 100 100 100 100 100 100 100 100 100 100 100 100 100 100 100 100 100 100 100 100 100 100 100
5 11 33 5 5 5 5 5 20 21 70 98 64 32 56 79 45 5 5 5 5 5 5 20 98 100 100 100 100 100 100 100 100 100 100 100 100 100 100 100 100 100 100 100 100 100 100 100 100 100 100 100 100 100
5 5 1 5 1 5 5 10 9 6 80 67 96 100 70 30 51 81 69 39 6 5 33 51 100 100 100 100 100 100 100 100 100 100 100 100 100 100 100 100 100 100 100 100 100 100 100 100 100 100 100 100 100 100
1 3 1 3 5 5 34 81 100 99 80 74 100 98 73 38 30 31 12 68 55 84 86 98 100 100 100 100 100 100 100 100 100 100 100 100 100 100 100 100 100 100 100 100 100 100 100 100 100 100 100 100 100 100
5 4 5 4 5 18 97 100 100 100 100 100 100 99 100 100 87 75 92 98 100 98 98 100 100 100 100 100 100 100 100 100 100 100 100 100 100 100 100 100 100 100 100 100 100 100 100 100 100 100 100 100 100 98
2 3 5 4 26 2 23 5 3 5 18 96 96 96 100 100 100 100 100 100 100 100 100 100 100 100 100 100 100 100 100 100 100 100 100 100 100 100 100 98 100 100 100 100 100 100 100 99 100 88 82 69 59 40
1 5 8 11 14 21 4 5 5 5 5 10 78 99 100 100 100 100 100 100 100 100 100 100 100 100 100 100 100 100 100 100 100 100 100 99 93 99 93 100 98 100 100 100 100 100 94 96 85 72 73 75 74 72
0 18 2 0 3 6 54 5 5 9 92 55 35 64 77 95 100 100 100 100 100 100 100 100 100 100 100 100 100 100 100 100 100 98 100 100 93 98 100 98 92 100 92 82 90 92 98 72 69 66 60 83 95 59
37 35 12 81 6 32 99 96 100 99 89 68 58 60 78 68 32 32 12 37 59 75 84 100 100 92 82 97 100 97 100 100 98 95 91 100 100 83 83 78 75 78 99 100 100 97 89 87 81 65 74 86 94 83
0 4 26 2 5 5 31 46 19 8 55 83 19 60 5 3 5 5 68 79 90 94 96 99 100 100 100 91 83 84 84 96 99 89 90 96 97 94 99 97 86 82 93 95 95 100 95 93 99 94 93 64 56 91
11 63 49 42 5 7 5 26 42 33 32 26 51 6 5 10 51 85 95 94 95 91 89 91 95 98 98 89 91 97 88 84 81 82 79 74 77 84 88 88 80 100 97 80 97 93 84 97 87 82 89 81 74 11
26 26 18 5 9 26 5 5 5 5 48 39 62 9 6 6 50 57 70 75 81 82 81 90 98 93 96 88 85 88 90 99 95 90 95 91 96 90 92 96 91 91 88 87 93 100 94 100 100 100 87 90 58 51
13 71 6 52 15 5 5 47 8 13 35 61 86 44 14 5 5 5 5 5 22 32 58 85 88 100 91 100 86 89 87 68 98 100 96 81 93 100 100 100 100 100 92 88 78 77 84 53 64 49 38 6 6 18
14 6 21 58 10 5 28 62 70 90 97 90 94 84 10 8 5 5 7 60 62 90 89 98 100 100 100 100 100 95 94 80 85 93 97 87 91 95 93 99 95 90 84 89 86 94 100 89 86 95 86 96 69 96
5 45 62 5 5 21 6 33 22 29 90 68 10 92 10 69 99 100 100 93 90 96 100 100 100 100 100 100 100 100 100 100 100 100 100 100 100 100 100 100 100 100 100 100 93 92 100 100 96 92 92 82 66 67
7 5 52 6 5 5 5 6 5 5 15 29 8 16 52 69 26 13 5 5 35 8 6 64 99 100 89 59 42 68 87 79 99 100 100 100 100 100 100 100 100 100 100 100 100 100 100 99 99 97 86 92 98 89